FW5365 Weather Reports


Display with metric or nautical units.
time (UTC)temp
F
wind
direction
speed
MPH
gust
MPH
rain 1hr
in
rain 24hr
in
rain mn
in
humidity
%
barometer
mb
20260503201559 60 294 5.0 12.0 0.00 0.00 0.00 68 1013.1
20260503200057 62 284 4.0 9.0 0.00 0.00 0.00 66 1013.0
20260503194624 60 195 3.0 6.0 0.00 0.00 0.00 66 1013.0
20260503193056 61 208 2.0 9.0 0.00 0.00 0.00 66 1012.9
20260503191612 61 263 3.0 8.0 0.00 0.00 0.00 65 1013.1
20260503190058 62 246 2.0 9.0 0.00 0.00 0.00 64 1013.1
20260503184559 62 318 2.0 7.0 0.00 0.00 0.00 64 1013.1
20260503183105 60 131 3.0 7.0 0.00 0.00 0.00 66 1013.1
20260503181607 60 169 2.0 11.0 0.00 0.00 0.00 64 1013.1
20260503180058 61 238 2.0 6.0 0.00 0.00 0.00 68 1013.0
20260503174613 58 262 2.0 5.0 0.00 0.00 0.00 71 1013.0
20260503173105 57 280 2.0 9.0 0.00 0.00 0.00 74 1012.9
20260503171557 57 285 1.0 8.0 0.00 0.00 0.00 78 1013.0
20260503170112 57 309 0.0 3.0 0.00 0.00 0.00 81 1013.2
20260503120112 53 295 0.0 0.0 0.00 0.00 0.00 88 1011.0
20260503081555 53 0 0.0 1.0 0.00 0.00 0.00 85 1011.8
20260503071557 53 315 0.0 3.0 0.00 0.00 0.00 86 1012.1
20260503054600 53 251 3.0 8.0 0.00 0.00 0.00 85 1012.3
20260503053057 53 284 3.0 8.0 0.00 0.00 0.00 85 1012.3
20260503051559 53 249 5.0 10.0 0.00 0.00 0.00 84 1012.3
20260503050058 53 262 6.0 11.0 0.00 0.00 0.00 83 1012.5
20260503044619 53 252 4.0 10.0 0.00 0.00 0.00 85 1012.3
20260503043109 53 231 3.0 10.0 0.00 0.00 0.00 86 1012.3
20260503041615 53 238 4.0 10.0 0.00 0.00 0.00 85 1012.3
20260503034604 53 245 6.0 11.0 0.00 0.00 0.00 83 1012.0
20260503033116 53 233 6.0 12.0 0.00 0.00 0.00 83 1011.9
20260503031600 53 278 5.0 11.0 0.00 0.00 0.00 84 1011.8
20260503030107 53 278 5.0 10.0 0.00 0.00 0.00 83 1011.4
20260503024604 53 242 5.0 14.0 0.00 0.00 0.00 83 1011.2
20260503023058 54 243 6.0 13.0 0.00 0.00 0.00 82 1011.2
20260503021609 54 293 5.0 11.0 0.00 0.00 0.00 81 1011.2
20260503020109 55 250 6.0 12.0 0.00 0.00 0.00 79 1011.2
20260503014557 55 208 4.0 10.0 0.00 0.00 0.00 78 1011.3
20260503013103 56 302 4.0 11.0 0.00 0.00 0.00 78 1011.3
20260503011607 57 263 4.0 9.0 0.00 0.00 0.00 76 1011.4
20260503004601 57 270 5.0 12.0 0.00 0.00 0.00 76 1011.3
20260503003106 57 219 6.0 11.0 0.00 0.00 0.00 77 1011.5
20260503001604 58 293 6.0 15.0 0.00 0.00 0.00 76 1011.4
20260503000055 60 281 5.0 9.0 0.00 0.00 0.00 73 1011.5
20260502234557 60 208 4.0 9.0 0.00 0.00 0.00 74 1011.3
20260502233057 60 235 4.0 10.0 0.00 0.00 0.00 73 1011.5
20260502231559 60 250 4.0 9.0 0.00 0.00 0.00 73 1011.6
20260502230057 60 313 4.0 9.0 0.00 0.00 0.00 73 1011.9
20260502224559 60 231 5.0 11.0 0.00 0.00 0.00 73 1012.2
20260502223055 60 195 4.0 7.0 0.00 0.00 0.00 73 1012.3
20260502221556 61 205 5.0 8.0 0.00 0.00 0.00 70 1012.5
20260502220143 61 217 5.0 8.0 0.00 0.00 0.00 72 1012.8
20260502214557 61 228 4.0 8.0 0.00 0.00 0.00 71 1012.8
20260502213103 61 181 5.0 8.0 0.00 0.00 0.00 71 1012.9
20260502211556 61 271 4.0 9.0 0.00 0.00 0.00 70 1013.0
20260502204609 61 141 5.0 8.0 0.00 0.00 0.00 71 1013.4
20260502203121 60 193 3.0 9.0 0.00 0.00 0.00 74 1013.6